Skip Page Navigation
NASA JPL Caltech
NASA Logo - Jet Propulsion Laboratory + View the NASA Portal
+ Center for Near-Earth Object Studies
JPL Home Earth Solar System Stars & Galaxies Technology
JPL Solar System Dynamics
BODIES ORBITS EPHEMERIDES TOOLS PHYSICAL DATA DISCOVERY FAQ SITE MAP
JPL Small-Body Database Browser
Search: [ help ]  
70076 (1999 JD57)
Classification: Main-belt Asteroid          SPK-ID: 2070076
Ephemeris | Orbit Diagram | Orbital Elements | Mission Design | Physical Parameters | Discovery Circumstances | Close-Approach Data ]

[ show orbit diagram ]
Orbital Elements at Epoch 2459000.5 (2020-May-31.0) TDB
Reference: JPL 20 (heliocentric ecliptic J2000)
 Element Value Uncertainty (1-sigma)   Units 
e .1569810741490628 3.0076e-08  
a 2.284738084020107 8.2643e-09 au
q 1.926077445441359 6.8088e-08 au
i 5.948385810459416 3.4891e-06 deg
node 113.1218160717112 4.1441e-05 deg
peri 170.9144411468843 4.4013e-05 deg
M 358.4579529911468 1.3954e-05 deg
tp 2459005.903164262424
(2020-Jun-05.40316426)
4.889e-05 TDB
period 1261.400672810423
3.45
6.844e-06
1.874e-08
d
yr
n .2853970255128481 1.5485e-09 deg/d
Q 2.643398722598855 9.5616e-09 au
  Orbit Determination Parameters
   # obs. used (total)      838  
   data-arc span      7759 days (21.24 yr)  
   first obs. used      1999-05-10  
   last obs. used      2020-08-06  
   planetary ephem.      DE431  
   SB-pert. ephem.      SB431-N16  
   condition code      0  
   norm. resid. RMS      .54833  
   source      ORB  
   producer      Otto Matic  
   solution date      2020-Aug-25 06:25:20  

Additional Information
 Earth MOID = .909898 au 
 Jupiter MOID = 2.50047 au 
 T_jup = 3.579 
[ show covariance matrix ]

Ephemeris | Orbit Diagram | Orbital Elements | Mission Design | Physical Parameters | Discovery Circumstances | Close-Approach Data ]

Physical Parameter Table
Parameter Symbol Value Units Sigma Reference Notes
absolute magnitude H 16.0   n/a MPO351336  
diameter diameter 2.207 km 0.258 urn:nasa:pds:neowise_diameters_albedos::2.0[mainbelt] (http://adsabs.harvard.edu/abs/2011ApJ...741...68M)  
geometric albedo albedo 0.190   0.050 urn:nasa:pds:neowise_diameters_albedos::2.0[mainbelt] (http://adsabs.harvard.edu/abs/2011ApJ...741...68M)  

70076 (1999 JD57)          Discovered 1999-May-10 by LINEAR at Socorro
Reference: 20031109/Numbers.arcLast Updated: 2004-04-19

[ show close-approach data ]
Ephemeris | Orbit Diagram | Orbital Elements | Mission Design | Physical Parameters | Discovery Circumstances | Close-Approach Data ]
ABOUT SSD CREDITS/AWARDS PRIVACY/COPYRIGHT GLOSSARY LINKS
FirstGov 2020-Sep-30 00:17 UT
(server date/time)  
NASA Home Page
Site Manager:   Ryan S. Park
Webmaster  Alan B. Chamberlin